EW6034 Weather Reports


Display with metric or nautical units.
time (UTC)temp
F
wind
direction
speed
MPH
gust
MPH
rain 1hr
in
rain 24hr
in
rain mn
in
humidity
%
barometer
mb
20190421161644 78 151 5.0 12.0 0.00 0.00 0.00 47 1018.4
20190421161147 78 202 6.0 17.0 0.00 0.00 0.00 48 1018.4
20190421160648 78 102 6.0 17.0 0.00 0.00 0.00 47 1018.4
20190421160148 78 151 5.0 10.0 0.00 0.00 0.00 48 1018.3
20190421155644 77 169 4.0 11.0 0.00 0.00 0.00 50 1018.3
20190421155143 77 196 5.0 12.0 0.00 0.00 0.00 50 1018.2
20190421154644 76 88 6.0 13.0 0.00 0.00 0.00 49 1018.2
20190421154143 76 165 6.0 13.0 0.00 0.00 0.00 50 1018.2
20190421153643 76 134 5.0 12.0 0.00 0.00 0.00 50 1018.2
20190421153142 76 65 4.0 16.0 0.00 0.00 0.00 52 1018.2
20190421152644 75 122 5.0 16.0 0.00 0.00 0.00 54 1018.2
20190421152143 75 105 5.0 12.0 0.00 0.00 0.00 57 1018.2
20190421151642 74 138 5.0 12.0 0.00 0.00 0.00 58 1018.2
20190421151142 74 144 5.0 12.0 0.00 0.00 0.00 58 1018.2
20190421150640 74 146 5.0 11.0 0.00 0.00 0.00 56 1018.1
20190421150140 73 163 5.0 11.0 0.00 0.00 0.00 57 1018.1
20190421145642 73 145 4.0 11.0 0.00 0.00 0.00 59 1018.1
20190421145143 72 171 4.0 11.0 0.00 0.00 0.00 61 1018.0
20190421144642 72 140 4.0 11.0 0.00 0.00 0.00 63 1018.1
20190421144140 72 146 4.0 8.0 0.00 0.00 0.00 65 1018.1
20190421143641 72 162 3.0 8.0 0.00 0.00 0.00 68 1018.1
20190421143141 71 147 4.0 11.0 0.00 0.00 0.00 71 1018.0
20190421142640 71 173 4.0 11.0 0.00 0.00 0.00 72 1018.0
20190421142141 71 150 4.0 8.0 0.00 0.00 0.00 74 1018.0
20190421141639 70 139 4.0 12.0 0.00 0.00 0.00 75 1017.9
20190421141139 70 140 3.0 12.0 0.00 0.00 0.00 76 1017.8
20190421140638 69 139 3.0 7.0 0.00 0.00 0.00 78 1017.8
20190421140139 69 174 3.0 9.0 0.00 0.00 0.00 78 1017.6
20190421135638 68 168 3.0 9.0 0.00 0.00 0.00 80 1017.6
20190421135139 68 143 3.0 8.0 0.00 0.00 0.00 80 1017.7
20190421134639 67 238 3.0 6.0 0.00 0.00 0.00 81 1017.7
20190421134138 67 197 3.0 7.0 0.00 0.00 0.00 81 1017.6
20190421133639 67 140 3.0 7.0 0.00 0.00 0.00 82 1017.5
20190421133140 66 169 2.0 7.0 0.00 0.00 0.00 83 1017.5
20190421132638 66 141 2.0 7.0 0.00 0.00 0.00 83 1017.5
20190421132137 66 154 2.0 4.0 0.00 0.00 0.00 84 1017.5
20190421131638 65 173 2.0 4.0 0.00 0.00 0.00 84 1017.5
20190421131136 65 155 3.0 8.0 0.00 0.00 0.00 84 1017.5
20190421130639 65 159 3.0 8.0 0.00 0.00 0.00 85 1017.5
20190421130139 64 213 3.0 6.0 0.00 0.00 0.00 86 1017.4
20190421125637 64 157 3.0 7.0 0.00 0.00 0.00 87 1017.3
20190421125136 63 148 2.0 7.0 0.00 0.00 0.00 88 1017.3
20190421124636 63 136 3.0 6.0 0.00 0.00 0.00 88 1017.2
20190421124135 62 128 3.0 6.0 0.00 0.00 0.00 89 1017.3
20190421123636 61 170 2.0 5.0 0.00 0.00 0.00 91 1017.2
20190421123134 60 156 1.0 5.0 0.00 0.00 0.00 92 1017.1
20190421122634 59 147 1.0 4.0 0.00 0.00 0.00 93 1017.1
20190421122135 59 135 1.0 2.0 0.00 0.00 0.00 92 1017.1
20190421121635 59 135 0.0 2.0 0.00 0.00 0.00 93 1017.0
20190421121134 58 162 0.0 1.0 0.00 0.00 0.00 93 1016.9
20190421120635 58 162 0.0 1.0 0.00 0.00 0.00 93 1016.9
20190421120135 58 162 0.0 1.0 0.00 0.00 0.00 93 1016.8
20190421115636 58 162 0.0 0.0 0.00 0.00 0.00 92 1016.8
20190421115134 58 162 0.0 0.0 0.00 0.00 0.00 92 1016.7
20190421114635 58 162 0.0 0.0 0.00 0.00 0.00 92 1016.6
20190421114136 58 162 0.0 0.0 0.00 0.00 0.00 93 1016.7
20190421113636 58 162 0.0 1.0 0.00 0.00 0.00 93 1016.6
20190421113134 58 162 0.0 1.0 0.00 0.00 0.00 93 1016.5
20190421112634 58 162 0.0 1.0 0.00 0.00 0.00 92 1016.5
20190421112135 58 162 0.0 0.0 0.00 0.00 0.00 92 1016.5
20190421111636 58 162 0.0 0.0 0.00 0.00 0.00 92 1016.5
20190421111136 58 162 0.0 0.0 0.00 0.00 0.00 91 1016.4
20190421110635 58 162 0.0 0.0 0.00 0.00 0.00 91 1016.4
20190421110135 58 162 0.0 0.0 0.00 0.00 0.00 91 1016.3
20190421105635 59 162 0.0 0.0 0.00 0.00 0.00 91 1016.3
20190421105134 59 162 0.0 0.0 0.00 0.00 0.00 91 1016.3
20190421104635 59 162 0.0 0.0 0.00 0.00 0.00 91 1016.3
20190421104136 59 162 0.0 1.0 0.00 0.00 0.00 90 1016.2
20190421103635 59 162 0.0 1.0 0.00 0.00 0.00 91 1016.2
20190421103134 59 162 0.0 1.0 0.00 0.00 0.00 90 1016.2
20190421102634 59 162 0.0 2.0 0.00 0.00 0.00 90 1016.2
20190421102135 59 162 0.0 2.0 0.00 0.00 0.00 90 1016.1
20190421101647 59 162 0.0 2.0 0.00 0.00 0.00 90 1016.1
20190421101136 59 162 0.0 2.0 0.00 0.00 0.00 90 1016.0
20190421100634 59 162 0.0 1.0 0.00 0.00 0.00 90 1016.0
20190421100135 59 162 0.0 1.0 0.00 0.00 0.00 90 1016.1
20190421095635 59 162 0.0 1.0 0.00 0.00 0.00 90 1016.1
20190421095133 59 162 0.0 1.0 0.00 0.00 0.00 90 1016.0
20190421094632 59 162 0.0 2.0 0.00 0.00 0.00 90 1016.0
20190421094133 59 162 1.0 2.0 0.00 0.00 0.00 89 1016.0
20190421093634 59 162 0.0 2.0 0.00 0.00 0.00 89 1016.0
20190421093132 58 162 0.0 1.0 0.00 0.00 0.00 89 1016.0
20190421092632 59 162 0.0 0.0 0.00 0.00 0.00 89 1016.1
20190421092132 59 162 0.0 0.0 0.00 0.00 0.00 87 1016.0
20190421091134 60 162 0.0 1.0 0.00 0.00 0.00 87 1016.1
20190421090633 59 162 0.0 1.0 0.00 0.00 0.00 87 1016.1
20190421090133 59 162 0.0 1.0 0.00 0.00 0.00 87 1016.1
20190421085632 59 162 0.0 1.0 0.00 0.00 0.00 87 1016.1
20190421085131 60 162 0.0 1.0 0.00 0.00 0.00 86 1016.1
20190421084631 60 162 0.0 1.0 0.00 0.00 0.00 86 1016.1
20190421084131 60 162 0.0 1.0 0.00 0.00 0.00 86 1016.2
20190421083630 60 162 0.0 1.0 0.00 0.00 0.00 86 1016.2
20190421083131 60 162 0.0 1.0 0.00 0.00 0.00 85 1016.2
20190421082629 59 162 0.0 1.0 0.00 0.00 0.00 86 1016.2
20190421082130 59 162 0.0 1.0 0.00 0.00 0.00 85 1016.1
20190421081630 60 162 0.0 0.0 0.00 0.00 0.00 84 1016.2
20190421081129 60 162 0.0 1.0 0.00 0.00 0.00 84 1016.2
20190421080628 60 162 0.0 1.0 0.00 0.00 0.00 83 1016.2
20190421080128 60 162 0.0 2.0 0.00 0.00 0.00 84 1016.3
20190421075629 60 162 1.0 2.0 0.00 0.00 0.00 83 1016.3
20190421075129 60 162 1.0 2.0 0.00 0.00 0.00 82 1016.2
20190421074630 60 162 1.0 2.0 0.00 0.00 0.00 82 1016.2
20190421074125 60 162 1.0 2.0 0.00 0.00 0.00 82 1016.3
20190421073625 60 159 0.0 2.0 0.00 0.00 0.00 82 1016.3
20190421073123 60 159 0.0 1.0 0.00 0.00 0.00 82 1016.4
20190421072624 60 159 0.0 1.0 0.00 0.00 0.00 82 1016.5
20190421072122 60 159 0.0 2.0 0.00 0.00 0.00 81 1016.5
20190421071621 60 159 0.0 2.0 0.00 0.00 0.00 81 1016.6
20190421071120 60 186 0.0 2.0 0.00 0.00 0.00 81 1016.6
20190421070621 61 228 0.0 1.0 0.00 0.00 0.00 81 1016.7
20190421070121 61 228 0.0 0.0 0.00 0.00 0.00 80 1016.7
20190421065621 61 228 0.0 1.0 0.00 0.00 0.00 80 1016.7
20190421065120 61 228 0.0 2.0 0.00 0.00 0.00 79 1016.8
20190421064622 61 228 0.0 2.0 0.00 0.00 0.00 78 1016.9
20190421064121 61 225 0.0 2.0 0.00 0.00 0.00 78 1016.9
20190421063623 61 225 1.0 2.0 0.00 0.00 0.00 78 1016.8
20190421063120 61 225 1.0 2.0 0.00 0.00 0.00 77 1016.8
20190421062621 61 225 0.0 2.0 0.00 0.00 0.00 77 1016.9
20190421062121 62 226 0.0 2.0 0.00 0.00 0.00 77 1016.9
20190421061622 62 226 0.0 3.0 0.00 0.00 0.00 77 1016.9
20190421061120 62 173 0.0 3.0 0.00 0.00 0.00 75 1016.9
20190421060621 62 146 0.0 3.0 0.00 0.00 0.00 75 1016.9
20190421060121 62 202 0.0 2.0 0.00 0.00 0.00 74 1017.0
20190421055623 62 202 0.0 2.0 0.00 0.00 0.00 74 1017.0
20190421055120 62 202 1.0 3.0 0.00 0.00 0.00 74 1017.0
20190421054621 63 202 1.0 3.0 0.00 0.00 0.00 73 1017.0
20190421054119 63 186 1.0 3.0 0.00 0.00 0.00 72 1017.0
20190421053621 63 200 1.0 4.0 0.00 0.00 0.00 71 1017.0
20190421053120 63 200 1.0 4.0 0.00 0.00 0.00 71 1016.9
20190421052621 63 213 1.0 2.0 0.00 0.00 0.00 71 1017.0
20190421052120 63 219 1.0 3.0 0.00 0.00 0.00 71 1017.0
20190421051620 63 219 1.0 3.0 0.00 0.00 0.00 71 1017.0
20190421051120 64 198 1.0 2.0 0.00 0.00 0.00 70 1017.1
20190421050621 64 207 1.0 3.0 0.00 0.00 0.00 70 1017.0
20190421050122 64 207 1.0 4.0 0.00 0.00 0.00 69 1017.0
20190421045622 64 170 1.0 4.0 0.00 0.00 0.00 68 1017.0
20190421045120 64 207 1.0 4.0 0.00 0.00 0.00 67 1017.0
20190421044621 64 159 1.0 4.0 0.00 0.00 0.00 67 1017.0
20190421044120 65 137 1.0 5.0 0.00 0.00 0.00 67 1017.1
20190421043622 65 145 0.0 5.0 0.00 0.00 0.00 66 1017.1
20190421043123 65 226 0.0 8.0 0.00 0.00 0.00 65 1017.2
20190421042621 65 223 1.0 8.0 0.00 0.00 0.00 65 1017.2
20190421042119 65 200 2.0 6.0 0.00 0.00 0.00 64 1017.2
20190421041620 66 203 2.0 6.0 0.00 0.00 0.00 63 1017.3
20190421041118 65 203 2.0 6.0 0.00 0.00 0.00 63 1017.3
20190421040618 66 194 1.0 6.0 0.00 0.00 0.00 62 1017.2
20190421040120 66 181 1.0 4.0 0.00 0.00 0.00 62 1017.2
20190421035619 66 169 2.0 5.0 0.00 0.00 0.00 61 1017.1
20190421035119 66 196 2.0 5.0 0.00 0.00 0.00 60 1017.2
20190421034619 66 169 1.0 4.0 0.00 0.00 0.00 60 1017.2
20190421034118 67 199 1.0 4.0 0.00 0.00 0.00 60 1017.3
20190421033618 67 200 2.0 6.0 0.00 0.00 0.00 59 1017.3
20190421033118 67 202 2.0 6.0 0.00 0.00 0.00 58 1017.2
20190421032616 67 208 2.0 6.0 0.00 0.00 0.00 57 1017.3
20190421032115 67 185 2.0 6.0 0.00 0.00 0.00 58 1017.2
20190421031616 67 144 2.0 5.0 0.00 0.00 0.00 57 1017.1
20190421031116 68 220 1.0 5.0 0.00 0.00 0.00 57 1017.1
20190421030616 68 200 2.0 5.0 0.00 0.00 0.00 56 1017.1
20190421030115 68 209 2.0 6.0 0.00 0.00 0.00 56 1017.0
20190421025616 68 183 2.0 6.0 0.00 0.00 0.00 55 1017.0
20190421025115 69 165 2.0 6.0 0.00 0.00 0.00 55 1017.0
20190421024613 69 171 2.0 8.0 0.00 0.00 0.00 54 1017.0
20190421024116 69 271 3.0 9.0 0.00 0.00 0.00 54 1016.9
20190421023615 69 176 3.0 10.0 0.00 0.00 0.00 54 1016.9
20190421023115 70 182 4.0 10.0 0.00 0.00 0.00 53 1016.8
20190421022614 70 223 4.0 12.0 0.00 0.00 0.00 53 1016.7
20190421022117 70 207 3.0 12.0 0.00 0.00 0.00 54 1016.7
20190421021614 70 195 2.0 8.0 0.00 0.00 0.00 53 1016.5
20190421021114 70 180 2.0 8.0 0.00 0.00 0.00 53 1016.5
20190421020614 69 169 2.0 6.0 0.00 0.00 0.00 54 1016.4
20190421020114 69 187 2.0 7.0 0.00 0.00 0.00 55 1016.4
20190421015612 68 154 1.0 7.0 0.00 0.00 0.00 56 1016.3
20190421015112 68 254 0.0 0.0 0.00 0.00 0.00 62 1016.2
20190421014612 67 254 0.0 0.0 0.00 0.00 0.00 63 1016.2
20190421014112 68 254 0.0 0.0 0.00 0.00 0.00 58 1016.1
20190421013613 69 254 0.0 0.0 0.00 0.00 0.00 62 1016.1
20190421013112 69 254 0.0 0.0 0.00 0.00 0.00 61 1016.1
20190421012613 69 254 0.0 0.0 0.00 0.00 0.00 59 1016.1
20190421012112 69 254 0.0 0.0 0.00 0.00 0.00 58 1016.0
20190421011614 69 254 0.0 0.0 0.00 0.00 0.00 58 1016.0
20190421011112 70 254 0.0 0.0 0.00 0.00 0.00 57 1015.9
20190421010611 71 254 0.0 0.0 0.00 0.00 0.00 57 1016.0
20190421010110 71 254 0.0 0.0 0.00 0.00 0.00 55 1016.0
20190421005611 72 254 0.0 0.0 0.00 0.00 0.00 53 1016.0
20190421005110 72 254 0.0 0.0 0.00 0.00 0.00 54 1016.0
20190421004611 73 254 0.0 0.0 0.00 0.00 0.00 50 1016.0
20190421004113 73 254 0.0 0.0 0.00 0.00 0.00 49 1016.0
20190421003610 74 254 0.0 1.0 0.00 0.00 0.00 47 1016.0
20190421003110 74 254 0.0 1.0 0.00 0.00 0.00 46 1016.0
20190421002610 75 254 0.0 3.0 0.00 0.00 0.00 41 1016.0
20190421002111 76 254 1.0 3.0 0.00 0.00 0.00 38 1016.0
20190421001607 76 254 1.0 4.0 0.00 0.00 0.00 37 1016.0
20190421001108 77 213 2.0 4.0 0.00 0.00 0.00 36 1016.0
20190421000659 77 265 2.0 4.0 0.00 0.00 0.00 36 1016.0
20190421000107 77 261 2.0 7.0 0.00 0.00 0.00 35 1016.0
20190420235608 77 261 2.0 7.0 0.00 0.00 0.00 35 1016.0
20190420235109 78 242 2.0 6.0 0.00 0.00 0.00 35 1016.0
20190420234608 78 227 1.0 3.0 0.00 0.00 0.00 36 1016.0
20190420234108 78 209 2.0 4.0 0.00 0.00 0.00 36 1016.1
20190420233608 78 234 3.0 6.0 0.00 0.00 0.00 36 1016.1
20190420233109 78 294 3.0 8.0 0.00 0.00 0.00 34 1016.2
20190420232607 78 258 2.0 8.0 0.00 0.00 0.00 35 1016.2
20190420232108 79 308 3.0 8.0 0.00 0.00 0.00 34 1016.3
20190420231609 78 225 2.0 8.0 0.00 0.00 0.00 33 1016.3
20190420231108 79 309 3.0 7.0 0.00 0.00 0.00 33 1016.4
20190420230607 79 312 3.0 7.0 0.00 0.00 0.00 33 1016.4
20190420230108 79 271 3.0 7.0 0.00 0.00 0.00 34 1016.4
20190420225609 80 167 2.0 8.0 0.00 0.00 0.00 33 1016.5
20190420225109 79 214 2.0 8.0 0.00 0.00 0.00 35 1016.6
20190420224608 78 241 3.0 6.0 0.00 0.00 0.00 34 1016.6
20190420224106 78 296 3.0 6.0 0.00 0.00 0.00 33 1016.6
20190420223607 79 319 3.0 6.0 0.00 0.00 0.00 33 1016.6
20190420223103 79 323 3.0 8.0 0.00 0.00 0.00 33 1016.6
20190420222603 78 269 4.0 11.0 0.00 0.00 0.00 33 1016.6
20190420222105 79 271 4.0 11.0 0.00 0.00 0.00 33 1016.6
20190420221605 79 180 3.0 10.0 0.00 0.00 0.00 33 1016.6
20190420221103 78 22 3.0 9.0 0.00 0.00 0.00 33 1016.6
20190420220605 79 0 4.0 9.0 0.00 0.00 0.00 32 1016.6
20190420220103 78 244 3.0 9.0 0.00 0.00 0.00 33 1016.7
20190420215603 78 346 3.0 7.0 0.00 0.00 0.00 33 1016.9
20190420215103 79 0 3.0 7.0 0.00 0.00 0.00 32 1017.0
20190420214604 80 239 3.0 6.0 0.00 0.00 0.00 34 1017.0
20190420214103 79 0 4.0 10.0 0.00 0.00 0.00 34 1017.0
20190420213604 79 275 4.0 10.0 0.00 0.00 0.00 32 1017.1
20190420213105 79 255 2.0 6.0 0.00 0.00 0.00 34 1017.2
20190420212603 79 314 2.0 5.0 0.00 0.00 0.00 33 1017.2
20190420212107 79 229 3.0 10.0 0.00 0.00 0.00 34 1017.3
20190420211607 78 300 4.0 10.0 0.00 0.00 0.00 33 1017.5
20190420211107 79 259 3.0 10.0 0.00 0.00 0.00 32 1017.5
20190420210607 79 45 2.0 4.0 0.00 0.00 0.00 34 1017.6
20190420210106 77 327 3.0 6.0 0.00 0.00 0.00 34 1017.6
20190420205607 78 16 3.0 8.0 0.00 0.00 0.00 32 1017.7
20190420205106 79 253 3.0 8.0 0.00 0.00 0.00 33 1017.7
20190420204607 79 157 3.0 9.0 0.00 0.00 0.00 33 1017.8
20190420204106 79 286 3.0 9.0 0.00 0.00 0.00 31 1017.9
20190420203607 79 315 2.0 6.0 0.00 0.00 0.00 32 1018.0
20190420203106 79 136 3.0 7.0 0.00 0.00 0.00 31 1018.1
20190420202607 79 213 3.0 7.0 0.00 0.00 0.00 29 1018.3
20190420202106 79 200 3.0 8.0 0.00 0.00 0.00 32 1018.4
20190420201608 78 256 3.0 13.0 0.00 0.00 0.00 32 1018.4
20190420201110 78 185 3.0 13.0 0.00 0.00 0.00 31 1018.5
20190420200606 78 329 2.0 4.0 0.00 0.00 0.00 32 1018.6
20190420200106 77 312 2.0 5.0 0.00 0.00 0.00 35 1018.7
20190420195607 77 294 3.0 9.0 0.00 0.00 0.00 32 1018.8
20190420195106 77 38 3.0 9.0 0.00 0.00 0.00 32 1018.9
20190420194608 78 296 4.0 10.0 0.00 0.00 0.00 33 1018.9
20190420194106 77 273 4.0 10.0 0.00 0.00 0.00 33 1019.0
20190420193607 78 241 3.0 10.0 0.00 0.00 0.00 33 1019.0
20190420193108 77 265 4.0 10.0 0.00 0.00 0.00 33 1019.1
20190420192607 77 206 4.0 10.0 0.00 0.00 0.00 34 1019.1
20190420192106 77 326 3.0 8.0 0.00 0.00 0.00 32 1019.3
20190420191606 77 242 3.0 9.0 0.00 0.00 0.00 33 1019.4
20190420191106 77 229 4.0 11.0 0.00 0.00 0.00 33 1019.5
20190420190605 77 261 4.0 11.0 0.00 0.00 0.00 32 1019.5
20190420190106 78 251 2.0 8.0 0.00 0.00 0.00 33 1019.7
20190420185606 76 17 2.0 9.0 0.00 0.00 0.00 32 1019.7
20190420185104 76 111 3.0 9.0 0.00 0.00 0.00 33 1019.7
20190420184600 76 229 4.0 11.0 0.00 0.00 0.00 31 1019.8
20190420184059 76 268 3.0 11.0 0.00 0.00 0.00 32 1019.8
20190420183600 77 202 3.0 6.0 0.00 0.00 0.00 31 1019.9
20190420183058 76 259 3.0 8.0 0.00 0.00 0.00 32 1020.0
20190420182557 76 267 3.0 8.0 0.00 0.00 0.00 31 1020.0
20190420182057 77 176 2.0 8.0 0.00 0.00 0.00 33 1020.1
20190420181557 77 287 2.0 6.0 0.00 0.00 0.00 31 1020.1
20190420181057 76 59 3.0 9.0 0.00 0.00 0.00 31 1020.1
20190420180556 76 315 3.0 9.0 0.00 0.00 0.00 31 1020.1
20190420180056 76 206 3.0 8.0 0.00 0.00 0.00 29 1020.2
20190420175555 76 263 2.0 8.0 0.00 0.00 0.00 31 1020.3
20190420175055 75 317 3.0 7.0 0.00 0.00 0.00 30 1020.3
20190420174555 76 181 4.0 13.0 0.00 0.00 0.00 30 1020.4
20190420174055 76 209 3.0 13.0 0.00 0.00 0.00 29 1020.4
20190420173557 76 267 2.0 9.0 0.00 0.00 0.00 29 1020.4
20190420173055 75 186 2.0 6.0 0.00 0.00 0.00 31 1020.4
20190420172556 75 222 2.0 6.0 0.00 0.00 0.00 30 1020.5
20190420172057 74 257 2.0 6.0 0.00 0.00 0.00 32 1020.6
20190420171554 74 340 1.0 5.0 0.00 0.00 0.00 31 1020.6
20190420171053 74 5 1.0 5.0 0.00 0.00 0.00 31 1020.6
20190420170554 74 136 2.0 5.0 0.00 0.00 0.00 32 1020.7
20190420170052 74 198 2.0 6.0 0.00 0.00 0.00 31 1020.8
20190420165553 74 215 2.0 6.0 0.00 0.00 0.00 32 1020.8
20190420165053 74 159 2.0 5.0 0.00 0.00 0.00 34 1020.9
20190420164554 73 196 2.0 6.0 0.00 0.00 0.00 33 1020.9
20190420164053 73 49 3.0 6.0 0.00 0.00 0.00 36 1021.0
20190420163553 73 256 2.0 7.0 0.00 0.00 0.00 38 1021.0
20190420163053 72 0 1.0 7.0 0.00 0.00 0.00 35 1021.1
20190420162552 72 22 1.0 4.0 0.00 0.00 0.00 35 1021.1
20190420162052 71 13 2.0 4.0 0.00 0.00 0.00 36 1021.0